Regional Weather Roundup
Issued by NWS Charleston, WV

Home | Current Version | Previous Version | Text Only | Print | Product List | Glossary Off
Versions: 1 2 3 4 5 6 7 8 9 10 11 12 13 14 15 16 17 18 19 20 21 22 23 24 25 26 27 28

000
ASUS41 KRLX 120810
RWRRLX
West Virginia Regional Weather Roundup
National Weather Service Charleston WV
300 AM EST TUE DEC 12 2017

Note: "fair" indicates few or no clouds below 12,000 feet with no
significant weather and/or obstructions to visibility.

WVZ003-120900-
Northern Panhandle of West Virginia

CITY           SKY/WX    TMP DP  RH WIND       PRES   REMARKS
WHEELING       CLOUDY    41  25  53 W20G30    29.58R
$$

WVZ009-120900-
Northwest West Virginia

CITY           SKY/WX    TMP DP  RH WIND       PRES   REMARKS
PARKERSBURG    CLOUDY    43  26  51 W10G17    29.70R
$$

WVZ006-120900-
Western West Virginia

CITY           SKY/WX    TMP DP  RH WIND       PRES   REMARKS
HUNTINGTON     MOCLDY    45  26  47 W14G25    29.74R
$$

WVZ015-120900-
West Central West Virginia

CITY           SKY/WX    TMP DP  RH WIND       PRES   REMARKS
CHARLESTON     MOCLDY    48  26  42 W13G24    29.71R
$$

WVZ022-031-120900-
North Central West Virginia

CITY           SKY/WX    TMP DP  RH WIND       PRES   REMARKS
CLARKSBURG     CLOUDY    47  27  45 W15G25    29.64R
MORGANTOWN     CLOUDY    45  26  47 SW12G21   29.61S
$$

WVZ025-035-042-045-120900-
Southern West Virginia

CITY           SKY/WX    TMP DP  RH WIND       PRES   REMARKS
BECKLEY        MOCLDY    42  26  53 W10       29.68F
LOGAN          CLOUDY    46  28  49 W13       29.71S
BLUEFIELD      MOCLDY    41  26  55 W16G23    29.69F
LEWISBURG      CLEAR     29  25  86 N3        29.68F
$$

WVZ047-120900-
Northern Mountains of West Virginia

CITY           SKY/WX    TMP DP  RH WIND       PRES   REMARKS
ELKINS         CLOUDY    47  27  45 SW14G21   29.62F
$$

WVZ052-120900-
Eastern Panhandle of West Virginia

CITY           SKY/WX    TMP DP  RH WIND       PRES   REMARKS
MARTINSBURG    CLOUDY    38  28  67 CALM      29.65F
PETERSBURG     CLOUDY    27  24  89 CALM      29.63F
$$




USA.gov is the U.S. government's official web portal to all federal, state and local government web resources and services.